NORTHEAST SUFFOLK  -  Rip Current Statement Rip Current Statement        NORTHWEST SUFFOLK  -  Rip Current Statement Rip Current Statement        SOUTHEAST SUFFOLK  -  Rip Current Statement Rip Current Statement        SOUTHWEST SUFFOLK  -  Rip Current Statement Rip Current Statement      

Active alerts

Northwest Suffolk
  Details for Northwest Suffolk Rip Current Statement
Southwest Suffolk
  Details for Southwest Suffolk Rip Current Statement
Northeast Suffolk
  Details for Northeast Suffolk Rip Current Statement
Southeast Suffolk
  Details for Southeast Suffolk Rip Current Statement


WXM80 ListenWXM80 Stop

You find our weather info also at:

UK Metoffice

WeatherCloud

Weather Underground

Northeastern Weather Network

AWEKAS

Citizen Weather Observer Program (CWOP)

HAMweather, WeatherForYou, PWS Weather


Weather Underground History page Text

Daily Summary for March 6, 2018 Units:  Metric    English   Both
« Previous Day
Next Day »
Daily Weekly Monthly Yearly Custom
  High: Low: Average:
Temperature: 7.7 °C 0.3 °C 3.5 °C
Dew Point: 0.4 °C -2.1 °C -1 °C
Humidity: 85 % 53 % 73 %
Wind Speed: 15 km/h 0 km/h 5.1 km/h
Wind Gust: 18.5 km/h - -
Wind:- - ESE
Pressure: 1009.7 hPa 1006 hPa -
Precipitation: 0 mm    
Historical Graphs
 
 
Tabular Data for March 6, 2018
Time Temperature Dew Point Pressure Wind Wind Speed Wind Gust Humidity Rainfall Rate (Hourly)
00:04 1.8 °C -1.7 °C 1008.4 hPa North 6.1 km/h 11.1 km/h 78 % 0 mm
00:09 1.7 °C -1.7 °C 1008.4 hPa NNE 8.7 km/h 11.1 km/h 78 % 0 mm
00:14 1.7 °C -1.7 °C 1008.4 hPa NNE 8.4 km/h 13 km/h 78 % 0 mm
00:19 1.7 °C -1.7 °C 1008.4 hPa North 5.6 km/h 11.1 km/h 78 % 0 mm
00:24 1.7 °C -1.8 °C 1008.4 hPa North 7.7 km/h 12.9 km/h 78 % 0 mm
00:29 1.7 °C -1.7 °C 1008.4 hPa NNE 3.5 km/h 9.3 km/h 78 % 0 mm
00:34 1.7 °C -1.6 °C 1008.7 hPa North 5.8 km/h 9.3 km/h 79 % 0 mm
00:39 1.6 °C -1.7 °C 1008.7 hPa NNW 6.3 km/h 9.7 km/h 79 % 0 mm
00:44 1.6 °C -1.8 °C 1008.7 hPa NNW 8 km/h 9.3 km/h 78 % 0 mm
00:49 1.6 °C -1.9 °C 1008.7 hPa North 7.6 km/h 11.3 km/h 78 % 0 mm
00:54 1.6 °C -1.7 °C 1008.7 hPa NNE 5.5 km/h 9.3 km/h 79 % 0 mm
00:59 1.6 °C -1.7 °C 1008.7 hPa NNE 9.2 km/h 9.7 km/h 79 % 0 mm
01:04 1.5 °C -1.7 °C 1008.7 hPa North 4 km/h 9.3 km/h 79 % 0 mm
01:10 1.5 °C -1.7 °C 1008.7 hPa North 2.4 km/h 9.3 km/h 79 % 0 mm
01:15 1.5 °C -1.7 °C 1008.7 hPa NNW 2.3 km/h 9.3 km/h 79 % 0 mm
01:20 1.4 °C -1.8 °C 1008.7 hPa NNE 6.4 km/h 9.3 km/h 79 % 0 mm
01:25 1.4 °C -1.6 °C 1008.7 hPa NNE 5.1 km/h 9.7 km/h 80 % 0 mm
01:30 1.4 °C -1.7 °C 1008.7 hPa North 1.9 km/h 8 km/h 80 % 0 mm
01:35 1.3 °C -1.7 °C 1008.4 hPa North 3.2 km/h 9.3 km/h 80 % 0 mm
01:40 1.3 °C -1.7 °C 1008.7 hPa NNE 7.7 km/h 13 km/h 80 % 0 mm
01:45 1.3 °C -1.8 °C 1008.4 hPa NNE 3.5 km/h 5.6 km/h 80 % 0 mm
01:50 1.3 °C -1.8 °C 1008.4 hPa North 5.3 km/h 7.4 km/h 80 % 0 mm
01:55 1.2 °C -1.8 °C 1008.4 hPa North 5.5 km/h 9.3 km/h 80 % 0 mm
02:00 1.3 °C -1.6 °C 1008.4 hPa NNE 6 km/h 9.3 km/h 81 % 0 mm
02:05 1.2 °C -1.7 °C 1008.4 hPa NNW 6.9 km/h 9.3 km/h 81 % 0 mm
02:10 1.2 °C -1.7 °C 1008.4 hPa North 3.4 km/h 5.6 km/h 81 % 0 mm
02:15 1.2 °C -1.7 °C 1008.4 hPa NNW 5.3 km/h 13 km/h 81 % 0 mm
02:20 1.2 °C -1.7 °C 1008.4 hPa NNW 4 km/h 9.3 km/h 81 % 0 mm
02:25 1.2 °C -1.7 °C 1008 hPa North 4.3 km/h 6.4 km/h 81 % 0 mm
02:30 1.2 °C -1.7 °C 1008 hPa NNW 4.2 km/h 11.3 km/h 81 % 0 mm
02:35 1.2 °C -1.7 °C 1008 hPa North 6.4 km/h 9.7 km/h 81 % 0 mm
02:41 1.1 °C -1.8 °C 1008 hPa North 3.1 km/h 9.3 km/h 81 % 0 mm
02:45 1.1 °C -1.6 °C 1008 hPa NNE 4.7 km/h 11.1 km/h 82 % 0 mm
02:51 1.1 °C -1.7 °C 1008 hPa North 3.2 km/h 11.3 km/h 82 % 0 mm
02:56 1.1 °C -1.7 °C 1008 hPa North 3.2 km/h 12.9 km/h 82 % 0 mm
03:01 1.1 °C -1.7 °C 1008 hPa NNW 4.5 km/h 11.1 km/h 82 % 0 mm
03:06 1 °C -1.7 °C 1008 hPa NNW 5 km/h 9.3 km/h 82 % 0 mm
03:11 1 °C -1.7 °C 1008 hPa NNE 1 km/h 9.3 km/h 82 % 0 mm
03:16 1 °C -1.7 °C 1008 hPa North 3.9 km/h 11.1 km/h 82 % 0 mm
03:21 0.9 °C -1.8 °C 1008 hPa NNE 4.2 km/h 9.3 km/h 82 % 0 mm
03:26 0.9 °C -1.8 °C 1008 hPa NNE 9.8 km/h 16.7 km/h 82 % 0 mm
03:31 0.9 °C -1.6 °C 1008 hPa North 9.2 km/h 13 km/h 83 % 0 mm
03:36 0.9 °C -1.8 °C 1008 hPa NNE 8.7 km/h 11.1 km/h 82 % 0 mm
03:41 0.9 °C -1.8 °C 1008 hPa NNE 7.7 km/h 11.1 km/h 82 % 0 mm
03:46 0.9 °C -1.8 °C 1007.7 hPa North 6.4 km/h 13 km/h 82 % 0 mm
03:51 0.9 °C -1.8 °C 1007.7 hPa NNE 5.1 km/h 9.3 km/h 82 % 0 mm
03:56 0.9 °C -1.6 °C 1007.7 hPa North 9.7 km/h 18.5 km/h 83 % 0 mm
04:01 0.9 °C -1.8 °C 1007.7 hPa NNE 9.8 km/h 14.8 km/h 82 % 0 mm
04:06 0.9 °C -1.6 °C 1007.7 hPa NNE 9 km/h 13 km/h 83 % 0 mm
04:11 0.9 °C -1.6 °C 1007.7 hPa NNE 8 km/h 12.9 km/h 83 % 0 mm
04:16 0.9 °C -1.7 °C 1007.7 hPa NNE 9.3 km/h 13 km/h 83 % 0 mm
04:21 0.9 °C -1.7 °C 1008 hPa NNE 8 km/h 11.1 km/h 83 % 0 mm
04:26 0.9 °C -1.7 °C 1008 hPa North 4.5 km/h 13 km/h 83 % 0 mm
04:31 0.8 °C -1.7 °C 1008 hPa NNE 3.9 km/h 7.4 km/h 83 % 0 mm
04:36 0.8 °C -1.8 °C 1008 hPa NNE 8.9 km/h 12.9 km/h 83 % 0 mm
04:41 0.8 °C -1.7 °C 1008 hPa North 5.6 km/h 11.1 km/h 83 % 0 mm
04:46 0.8 °C -1.8 °C 1008 hPa NNE 3.9 km/h 11.1 km/h 83 % 0 mm
04:51 0.8 °C -1.6 °C 1008.4 hPa NNW 5.3 km/h 11.1 km/h 84 % 0 mm
04:56 0.8 °C -1.6 °C 1008.4 hPa North 3.5 km/h 8 km/h 84 % 0 mm
05:01 0.8 °C -1.6 °C 1008.4 hPa North 3.1 km/h 6.4 km/h 84 % 0 mm
05:06 0.7 °C -1.7 °C 1008.4 hPa NNE 5.6 km/h 11.1 km/h 84 % 0 mm
05:11 0.7 °C -1.7 °C 1008.4 hPa NNW 3.1 km/h 7.4 km/h 84 % 0 mm
05:16 0.7 °C -1.7 °C 1008.7 hPa NNW 2.3 km/h 9.3 km/h 84 % 0 mm
05:22 0.7 °C -1.7 °C 1008.7 hPa North 3.7 km/h 13 km/h 84 % 0 mm
05:27 0.7 °C -1.7 °C 1008.7 hPa NNW 5.3 km/h 11.1 km/h 84 % 0 mm
05:32 0.6 °C -1.8 °C 1008.7 hPa NNE 4.8 km/h 9.7 km/h 84 % 0 mm
05:37 0.6 °C -1.8 °C 1008.7 hPa NNW 5.6 km/h 11.1 km/h 84 % 0 mm
05:42 0.6 °C -1.8 °C 1008.7 hPa North 4 km/h 8 km/h 84 % 0 mm
05:47 0.5 °C -1.9 °C 1008.7 hPa NNE 6.3 km/h 9.3 km/h 84 % 0 mm
05:52 0.5 °C -1.9 °C 1008.7 hPa North 0.3 km/h 5.6 km/h 84 % 0 mm
05:57 0.4 °C -1.9 °C 1008.7 hPa North 3.2 km/h 7.4 km/h 84 % 0 mm
06:02 0.4 °C -2 °C 1008.7 hPa NE 1.6 km/h 5.6 km/h 84 % 0 mm
06:07 0.4 °C -2 °C 1009 hPa Calm   1.9 km/h 84 % 0 mm
06:12 0.3 °C -2.1 °C 1009 hPa Calm   1.9 km/h 84 % 0 mm
06:17 0.3 °C -2.1 °C 1009 hPa NNE 2.1 km/h 4.8 km/h 84 % 0 mm
06:22 0.3 °C -2.1 °C 1009 hPa NNE 1.1 km/h 5.6 km/h 84 % 0 mm
06:27 0.3 °C -1.9 °C 1009 hPa NNE 0.6 km/h 3.7 km/h 85 % 0 mm
06:32 0.3 °C -1.9 °C 1009.4 hPa NNE 2.6 km/h 5.6 km/h 85 % 0 mm
06:37 0.3 °C -1.9 °C 1009.4 hPa NNE 0.3 km/h 3.7 km/h 85 % 0 mm
06:42 0.3 °C -1.9 °C 1009.4 hPa NNE 4.7 km/h 5.6 km/h 85 % 0 mm
06:47 0.4 °C -1.8 °C 1009.4 hPa Calm   1.9 km/h 85 % 0 mm
06:52 0.5 °C -1.7 °C 1009.4 hPa Calm   1.9 km/h 85 % 0 mm
06:57 0.6 °C -1.6 °C 1009.4 hPa North 3.5 km/h 9.3 km/h 85 % 0 mm
07:02 0.8 °C -1.4 °C 1009.4 hPa NNE 1.8 km/h 5.6 km/h 85 % 0 mm
07:07 0.9 °C -1.3 °C 1009.4 hPa North 6.3 km/h 13 km/h 85 % 0 mm
07:13 1.2 °C -1.2 °C 1009.4 hPa North 3.5 km/h 7.4 km/h 84 % 0 mm
07:18 1.4 °C -0.9 °C 1009.4 hPa NNE 2.7 km/h 7.4 km/h 84 % 0 mm
07:23 1.7 °C -0.8 °C 1009.4 hPa North 4.2 km/h 5.6 km/h 83 % 0 mm
07:28 2 °C -0.6 °C 1009.4 hPa NNE 1.6 km/h 5.6 km/h 83 % 0 mm
07:33 2.2 °C -0.7 °C 1009.4 hPa NE 2.3 km/h 7.4 km/h 81 % 0 mm
07:38 2.4 °C -0.5 °C 1009.4 hPa NE 2.6 km/h 3.7 km/h 81 % 0 mm
07:43 2.7 °C -0.4 °C 1009.7 hPa NE 3.5 km/h 5.6 km/h 80 % 0 mm
07:48 2.8 °C -0.4 °C 1009.4 hPa NNE 3.9 km/h 5.6 km/h 79 % 0 mm
07:53 2.9 °C -0.7 °C 1009.4 hPa ENE 3.9 km/h 5.6 km/h 77 % 0 mm
07:58 3.1 °C -0.6 °C 1009.7 hPa ENE 4.3 km/h 7.4 km/h 77 % 0 mm
08:03 3.2 °C -0.5 °C 1009.7 hPa ENE 1.1 km/h 3.7 km/h 77 % 0 mm
08:08 3.2 °C -0.6 °C 1009.7 hPa NE 4.3 km/h 5.6 km/h 76 % 0 mm
08:13 3.3 °C -0.9 °C 1009.7 hPa NE 0.8 km/h 3.7 km/h 74 % 0 mm
08:18 3.3 °C -0.7 °C 1009.7 hPa NE 1 km/h 5.6 km/h 75 % 0 mm
08:23 3.6 °C -0.3 °C 1009.7 hPa NE 0.3 km/h 3.7 km/h 76 % 0 mm
08:28 3.7 °C -0.3 °C 1009.7 hPa ENE 3.9 km/h 5.6 km/h 75 % 0 mm
08:33 3.7 °C -0.5 °C 1009.7 hPa NE 4.7 km/h 6.4 km/h 74 % 0 mm
08:39 3.7 °C -0.1 °C 1009.7 hPa ENE 4.3 km/h 7.4 km/h 76 % 0 mm
08:44 3.8 °C -0.1 °C 1009.4 hPa ENE 2.6 km/h 5.6 km/h 76 % 0 mm
08:49 3.8 °C -0.2 °C 1009.4 hPa NNE 3.9 km/h 8 km/h 75 % 0 mm
08:54 3.7 °C -0.3 °C 1009.4 hPa NE 3.2 km/h 6.4 km/h 75 % 0 mm
08:59 3.8 °C -0.2 °C 1009.4 hPa ENE 4.3 km/h 7.4 km/h 75 % 0 mm
09:04 3.9 °C 0.1 °C 1009.4 hPa ENE 3.9 km/h 11.3 km/h 76 % 0 mm
09:09 3.9 °C -0.1 °C 1009.4 hPa ENE 5.5 km/h 7.4 km/h 75 % 0 mm
09:14 4 °C -0.1 °C 1009.4 hPa ENE 5.8 km/h 11.1 km/h 75 % 0 mm
09:19 4.1 °C -0.3 °C 1009.4 hPa NE 8 km/h 13 km/h 73 % 0 mm
09:24 4.2 °C -0.2 °C 1009.4 hPa ENE 7.2 km/h 11.3 km/h 73 % 0 mm
09:29 4.4 °C -0.1 °C 1009.4 hPa ENE 5.8 km/h 11.1 km/h 73 % 0 mm
09:34 4.6 °C 0 °C 1009.4 hPa East 6.8 km/h 9.3 km/h 72 % 0 mm
09:39 4.8 °C 0 °C 1009.4 hPa ENE 5.1 km/h 7.4 km/h 71 % 0 mm
09:44 4.9 °C -0.3 °C 1009.4 hPa ENE 7.7 km/h 9.3 km/h 69 % 0 mm
09:49 4.8 °C -0.4 °C 1009.4 hPa East 5.1 km/h 9.3 km/h 69 % 0 mm
09:54 4.8 °C -0.4 °C 1009.4 hPa ENE 7.9 km/h 11.1 km/h 69 % 0 mm
09:59 5.1 °C 0.2 °C 1009.7 hPa ENE 4.5 km/h 7.4 km/h 71 % 0 mm
10:04 5.2 °C 0.2 °C 1009.4 hPa ENE 8.7 km/h 14.5 km/h 70 % 0 mm
10:10 5.2 °C -0.3 °C 1009.4 hPa East 6.4 km/h 14.8 km/h 68 % 0 mm
10:15 5.1 °C -0.4 °C 1009 hPa ENE 9.3 km/h 13 km/h 68 % 0 mm
10:20 4.9 °C -0.7 °C 1009 hPa East 10 km/h 14.8 km/h 67 % 0 mm
10:25 5.2 °C -0.1 °C 1009.4 hPa East 8.9 km/h 13 km/h 69 % 0 mm
10:30 5.2 °C -0.4 °C 1009 hPa ENE 5.6 km/h 16.7 km/h 67 % 0 mm
10:35 5.5 °C 0.1 °C 1009 hPa NE 7.9 km/h 13 km/h 68 % 0 mm
10:40 5.6 °C -0.1 °C 1009 hPa East 8.4 km/h 11.3 km/h 67 % 0 mm
10:45 5.6 °C -0.1 °C 1009.4 hPa East 8.7 km/h 13 km/h 67 % 0 mm
10:50 5.6 °C 0.2 °C 1009 hPa ENE 9 km/h 16.7 km/h 68 % 0 mm
10:55 5.8 °C 0.4 °C 1009 hPa ENE 8.9 km/h 13 km/h 68 % 0 mm
11:00 5.8 °C -0.1 °C 1009 hPa ENE 7.1 km/h 11.1 km/h 66 % 0 mm
11:05 5.7 °C -0.3 °C 1009 hPa ENE 8 km/h 11.3 km/h 65 % 0 mm
11:10 5.8 °C -0.1 °C 1009 hPa ENE 5.8 km/h 7.4 km/h 66 % 0 mm
11:15 5.8 °C -0.7 °C 1009 hPa ENE 6.9 km/h 11.1 km/h 63 % 0 mm
11:20 5.8 °C -0.3 °C 1009 hPa ENE 7.9 km/h 11.1 km/h 65 % 0 mm
11:25 5.7 °C -0.3 °C 1009 hPa ENE 6.6 km/h 11.1 km/h 65 % 0 mm
11:30 5.8 °C -0.1 °C 1009 hPa NE 6.6 km/h 11.1 km/h 66 % 0 mm
11:35 5.8 °C -0.1 °C 1009 hPa ENE 4.2 km/h 14.5 km/h 66 % 0 mm
11:40 5.9 °C 0.3 °C 1009 hPa ENE 5.1 km/h 9.3 km/h 67 % 0 mm
11:46 6.1 °C -0.1 °C 1008.7 hPa ENE 5.5 km/h 11.1 km/h 65 % 0 mm
11:51 6.2 °C -0.2 °C 1008.7 hPa ENE 9.7 km/h 12.9 km/h 64 % 0 mm
11:55 6.1 °C -0.1 °C 1008.7 hPa ENE 8 km/h 11.3 km/h 65 % 0 mm
12:01 6.1 °C -0.4 °C 1008.4 hPa ENE 6.1 km/h 13 km/h 63 % 0 mm
12:06 6 °C -0.5 °C 1008.4 hPa ENE 10.5 km/h 14.8 km/h 63 % 0 mm
12:11 5.8 °C -0.9 °C 1008.4 hPa ENE 8 km/h 14.8 km/h 62 % 0 mm
12:16 5.8 °C -0.1 °C 1008 hPa ENE 6.6 km/h 13 km/h 66 % 0 mm
12:21 6.1 °C 0 °C 1008 hPa NE 5.8 km/h 7.4 km/h 65 % 0 mm
12:26 6.3 °C -0.7 °C 1008 hPa ENE 6.4 km/h 9.3 km/h 61 % 0 mm
12:31 6.3 °C -1.2 °C 1007.7 hPa ENE 6.1 km/h 11.1 km/h 59 % 0 mm
12:36 6.4 °C -0.4 °C 1007.7 hPa ENE 3.9 km/h 8 km/h 62 % 0 mm
12:41 6.5 °C -1.2 °C 1007.7 hPa ENE 8 km/h 11.1 km/h 58 % 0 mm
12:46 6.6 °C -0.9 °C 1007.7 hPa NE 4.3 km/h 8 km/h 59 % 0 mm
12:51 7.1 °C 0.3 °C 1007.3 hPa ENE 5.5 km/h 8 km/h 62 % 0 mm
12:56 7.3 °C -0.4 °C 1007.3 hPa East 4.8 km/h 7.4 km/h 58 % 0 mm
13:01 7.4 °C -0.8 °C 1007.3 hPa East 4.5 km/h 7.4 km/h 56 % 0 mm
13:06 7.5 °C -1.5 °C 1007.3 hPa ENE 5.1 km/h 7.4 km/h 53 % 0 mm
13:11 7.7 °C -0.8 °C 1007.3 hPa ENE 4.5 km/h 7.4 km/h 55 % 0 mm
13:17 7.6 °C -1.2 °C 1007.3 hPa NE 4.5 km/h 7.4 km/h 54 % 0 mm
13:22 7.6 °C -1.4 °C 1007 hPa NE 5 km/h 7.4 km/h 53 % 0 mm
13:27 7.6 °C -1.4 °C 1007.3 hPa ENE 4.5 km/h 6.4 km/h 53 % 0 mm
13:32 7.7 °C -1.1 °C 1007 hPa ENE 3.9 km/h 6.4 km/h 54 % 0 mm
13:37 7.7 °C -1.3 °C 1007 hPa ENE 3.7 km/h 5.6 km/h 53 % 0 mm
13:42 7.6 °C -0.9 °C 1007 hPa ENE 4 km/h 7.4 km/h 55 % 0 mm
13:47 7.5 °C -1.5 °C 1007 hPa ENE 3.2 km/h 5.6 km/h 53 % 0 mm
13:52 7.4 °C -1.5 °C 1007 hPa ENE 2.7 km/h 5.6 km/h 53 % 0 mm
13:57 7.3 °C -1.6 °C 1007 hPa NE 4.2 km/h 6.4 km/h 53 % 0 mm
14:02 7.2 °C -1.2 °C 1007.3 hPa ENE 2.4 km/h 5.6 km/h 55 % 0 mm
14:07 7.1 °C -1.4 °C 1007 hPa ENE 3.7 km/h 5.6 km/h 55 % 0 mm
14:12 7.2 °C -0.8 °C 1007 hPa ENE 1.1 km/h 5.6 km/h 57 % 0 mm
14:17 7.3 °C -0.9 °C 1007 hPa ENE 2.6 km/h 5.6 km/h 56 % 0 mm
14:22 7.3 °C -1.2 °C 1007 hPa ENE 4 km/h 7.4 km/h 55 % 0 mm
14:27 7.1 °C -0.7 °C 1006.7 hPa ENE 4 km/h 5.6 km/h 58 % 0 mm
14:32 6.9 °C 0.2 °C 1006.7 hPa NE 6.3 km/h 11.1 km/h 62 % 0 mm
14:37 6.7 °C -0.8 °C 1006.7 hPa ENE 4.2 km/h 5.6 km/h 59 % 0 mm
14:42 6.5 °C -0.5 °C 1006.7 hPa ENE 2.3 km/h 5.6 km/h 61 % 0 mm
14:47 6.5 °C -0.3 °C 1006.7 hPa ENE 4.2 km/h 8 km/h 62 % 0 mm
14:53 6.4 °C -1 °C 1006.7 hPa ENE 5 km/h 7.4 km/h 59 % 0 mm
14:58 6.3 °C -1.1 °C 1006.7 hPa ENE 3.2 km/h 5.6 km/h 59 % 0 mm
15:03 6.2 °C -1.2 °C 1006.7 hPa ENE 4 km/h 7.4 km/h 59 % 0 mm
15:08 6.2 °C -1.3 °C 1006.7 hPa ENE 1.9 km/h 7.4 km/h 59 % 0 mm
15:13 6.1 °C -0.9 °C 1006.7 hPa ENE 6.9 km/h 13 km/h 61 % 0 mm
15:18 5.9 °C -1.5 °C 1006.7 hPa ENE 2.6 km/h 5.6 km/h 59 % 0 mm
15:23 5.7 °C -1.2 °C 1006.7 hPa ENE 3.4 km/h 5.6 km/h 61 % 0 mm
15:28 5.6 °C -0.9 °C 1006.7 hPa ENE 6.1 km/h 9.3 km/h 63 % 0 mm
15:33 5.6 °C -0.9 °C 1006.7 hPa ENE 8.7 km/h 11.3 km/h 63 % 0 mm
15:38 5.5 °C -0.8 °C 1006.7 hPa NE 6.3 km/h 11.1 km/h 64 % 0 mm
15:43 5.5 °C -0.8 °C 1006.7 hPa East 1.9 km/h 5.6 km/h 64 % 0 mm
15:48 5.6 °C -0.4 °C 1006.7 hPa SSE 4.7 km/h 8 km/h 65 % 0 mm
15:53 5.9 °C -0.4 °C 1006.7 hPa SE 8.5 km/h 12.9 km/h 64 % 0 mm
15:58 6.1 °C -0.7 °C 1006.7 hPa SSE 1.3 km/h 7.4 km/h 62 % 0 mm
16:04 6.2 °C -0.6 °C 1006.7 hPa SSE 5.3 km/h 11.1 km/h 62 % 0 mm
16:06 6.2 °C -0.3 °C 1006.7 hPa SSE 3.9 km/h 7.4 km/h 63 % 0 mm
16:12 6.3 °C -0.7 °C 1006.7 hPa SSE 8.7 km/h 14.8 km/h 61 % 0 mm
16:17 6.2 °C -0.8 °C 1006.7 hPa South 9.5 km/h 13 km/h 61 % 0 mm
16:22 6.1 °C -0.6 °C 1006.7 hPa SSE 8 km/h 11.1 km/h 62 % 0 mm
16:27 6.1 °C -0.7 °C 1006.7 hPa SSE 6 km/h 8 km/h 62 % 0 mm
16:32 6 °C -0.7 °C 1006.7 hPa South 4.3 km/h 9.7 km/h 62 % 0 mm
16:37 6 °C -0.7 °C 1006.7 hPa South 5.1 km/h 7.4 km/h 62 % 0 mm
16:38 6 °C -0.7 °C 1006.7 hPa SSW 1.9 km/h 6.4 km/h 62 % 0 mm
16:43 5.9 °C -0.8 °C 1007 hPa South 8.4 km/h 12.9 km/h 62 % 0 mm
16:48 5.8 °C -1.2 °C 1007 hPa SE 12.1 km/h 16.7 km/h 61 % 0 mm
16:53 5.6 °C -1.4 °C 1007 hPa SSE 1 km/h 4.8 km/h 61 % 0 mm
16:58 5.4 °C -1.3 °C 1007 hPa SSE 8.7 km/h 11.1 km/h 62 % 0 mm
17:03 5.3 °C -1.4 °C 1007 hPa South 5 km/h 13 km/h 62 % 0 mm
17:08 5.2 °C -1.3 °C 1007 hPa South 3.5 km/h 11.1 km/h 63 % 0 mm
17:13 5 °C -1.4 °C 1007.3 hPa SSW 4.8 km/h 9.3 km/h 63 % 0 mm
17:14 5 °C -1.4 °C 1007 hPa SE 5.3 km/h 9.3 km/h 63 % 0 mm
17:19 4.8 °C -1.4 °C 1007.3 hPa SSE 6.6 km/h 11.1 km/h 64 % 0 mm
17:24 4.8 °C -1.3 °C 1007.3 hPa South 6.3 km/h 7.4 km/h 65 % 0 mm
17:29 4.7 °C -1.3 °C 1007 hPa SSE 5.3 km/h 11.1 km/h 65 % 0 mm
17:33 4.7 °C -1.3 °C 1007 hPa SSE 10.1 km/h 18.5 km/h 65 % 0 mm
17:38 4.5 °C -1.5 °C 1007 hPa South 8 km/h 18.5 km/h 65 % 0 mm
17:43 4.4 °C -1.3 °C 1007 hPa SE 5.6 km/h 13 km/h 66 % 0 mm
17:48 4.4 °C -1.2 °C 1007 hPa SSE 6.8 km/h 11.3 km/h 67 % 0 mm
17:53 4.3 °C -1.1 °C 1006.7 hPa SE 4.3 km/h 11.1 km/h 68 % 0 mm
17:59 4.3 °C -1.1 °C 1006.7 hPa SE 9.2 km/h 18.5 km/h 68 % 0 mm
18:04 4.2 °C -1.2 °C 1006.7 hPa ESE 5.8 km/h 13 km/h 68 % 0 mm
18:09 4.1 °C -1.3 °C 1006.7 hPa South 6.4 km/h 16.7 km/h 68 % 0 mm
18:14 3.9 °C -1.2 °C 1006.7 hPa SSE 11.3 km/h 16.7 km/h 69 % 0 mm
18:19 3.8 °C -1.2 °C 1006.7 hPa SSE 8.2 km/h 13 km/h 70 % 0 mm
18:24 3.8 °C -1 °C 1006.7 hPa SSE 5.1 km/h 9.3 km/h 71 % 0 mm
18:29 3.7 °C -1.1 °C 1006.7 hPa SSE 6.1 km/h 16.1 km/h 71 % 0 mm
18:34 3.7 °C -1.1 °C 1006.7 hPa SSE 3.5 km/h 7.4 km/h 71 % 0 mm
18:40 3.7 °C -0.9 °C 1007 hPa SE 2.4 km/h 11.1 km/h 72 % 0 mm
18:45 3.6 °C -0.9 °C 1007 hPa SE 7.9 km/h 9.3 km/h 72 % 0 mm
18:50 3.6 °C -0.8 °C 1007 hPa SSE 4.5 km/h 11.1 km/h 73 % 0 mm
18:55 3.5 °C -0.9 °C 1007 hPa SE 3.9 km/h 14.8 km/h 73 % 0 mm
19:00 3.4 °C -0.8 °C 1007 hPa ESE 6.6 km/h 13 km/h 74 % 0 mm
19:05 3.4 °C -0.8 °C 1007 hPa ESE 6.1 km/h 11.1 km/h 74 % 0 mm
19:10 3.4 °C -0.6 °C 1007 hPa SE 6.4 km/h 13 km/h 75 % 0 mm
19:15 3.3 °C -0.7 °C 1006.7 hPa SSE 12.4 km/h 18.5 km/h 75 % 0 mm
19:20 3.3 °C -0.7 °C 1007 hPa SSE 7.9 km/h 16.1 km/h 75 % 0 mm
19:25 3.3 °C -0.7 °C 1007 hPa SSE 1.9 km/h 5.6 km/h 75 % 0 mm
19:30 3.3 °C -0.9 °C 1007 hPa SE 15 km/h 18.5 km/h 74 % 0 mm
19:35 3.3 °C -0.9 °C 1007 hPa SE 4.5 km/h 11.1 km/h 74 % 0 mm
19:40 3.2 °C -0.9 °C 1007 hPa ESE 5.6 km/h 13 km/h 74 % 0 mm
19:45 3.2 °C -0.8 °C 1006.7 hPa SSE 10.9 km/h 16.7 km/h 75 % 0 mm
19:50 3.1 °C -0.9 °C 1007.3 hPa ESE 4.5 km/h 8 km/h 75 % 0 mm
19:55 3.1 °C -0.9 °C 1007.3 hPa SSE 9.5 km/h 14.8 km/h 75 % 0 mm
20:00 3 °C -1 °C 1007.3 hPa SE 6.6 km/h 14.8 km/h 75 % 0 mm
20:05 3 °C -1 °C 1007.3 hPa SE 1.3 km/h 7.4 km/h 75 % 0 mm
20:07 3 °C -1 °C 1007 hPa SE 1.1 km/h 4.8 km/h 75 % 0 mm
20:12 2.9 °C -0.9 °C 1007 hPa SE 8.5 km/h 12.9 km/h 76 % 0 mm
20:17 2.9 °C -0.9 °C 1007.3 hPa SE 4.8 km/h 11.1 km/h 76 % 0 mm
20:22 2.9 °C -0.9 °C 1007.3 hPa SSE 6.1 km/h 13 km/h 76 % 0 mm
20:27 2.9 °C -0.9 °C 1007.7 hPa SSE 6.4 km/h 11.1 km/h 76 % 0 mm
20:32 2.9 °C -0.9 °C 1007.7 hPa SE 7.2 km/h 14.8 km/h 76 % 0 mm
20:37 3 °C -0.8 °C 1007.3 hPa SE 5.6 km/h 9.3 km/h 76 % 0 mm
20:42 3 °C -0.8 °C 1007.3 hPa SSE 9.7 km/h 14.8 km/h 76 % 0 mm
20:47 3.1 °C -0.8 °C 1007.3 hPa SE 3.4 km/h 14.8 km/h 76 % 0 mm
20:52 3.1 °C -0.8 °C 1007.3 hPa SE 4.3 km/h 8 km/h 76 % 0 mm
20:57 3.1 °C -0.8 °C 1007 hPa East 2.3 km/h 7.4 km/h 76 % 0 mm
21:02 3.1 °C -0.6 °C 1007 hPa SE 3.4 km/h 3.7 km/h 77 % 0 mm
21:07 3.1 °C -0.6 °C 1007.3 hPa ESE 5.6 km/h 11.1 km/h 77 % 0 mm
21:12 3.1 °C -0.6 °C 1007 hPa East 5.6 km/h 9.3 km/h 77 % 0 mm
21:17 3.1 °C -0.8 °C 1007 hPa ESE 5.5 km/h 14.8 km/h 76 % 0 mm
21:23 3.1 °C -0.6 °C 1007 hPa East 1.8 km/h 3.7 km/h 77 % 0 mm
21:28 3.1 °C -0.6 °C 1007.3 hPa ESE 1.8 km/h 5.6 km/h 77 % 0 mm
21:33 3.1 °C -0.8 °C 1007.3 hPa SE 5.5 km/h 11.1 km/h 76 % 0 mm
21:38 3.1 °C -0.8 °C 1007.3 hPa ESE 0.6 km/h 3.7 km/h 76 % 0 mm
21:43 3.1 °C -0.8 °C 1007.3 hPa East 2.4 km/h 5.6 km/h 76 % 0 mm
21:48 3.1 °C -0.4 °C 1007.3 hPa East 1.8 km/h 3.7 km/h 78 % 0 mm
21:53 3.1 °C -0.4 °C 1007.3 hPa East 2.6 km/h 8 km/h 78 % 0 mm
21:58 3 °C -0.4 °C 1007.3 hPa East 2.6 km/h 9.3 km/h 78 % 0 mm
22:03 3 °C -0.4 °C 1007.3 hPa East 1.9 km/h 7.4 km/h 78 % 0 mm
22:08 2.9 °C -0.5 °C 1007.3 hPa ESE 3.7 km/h 7.4 km/h 78 % 0 mm
22:13 2.9 °C -0.5 °C 1007.3 hPa ESE 2.3 km/h 7.4 km/h 78 % 0 mm
22:18 2.9 °C -0.7 °C 1007 hPa East 5.8 km/h 13 km/h 77 % 0 mm
22:23 2.9 °C -0.6 °C 1007 hPa East 4.2 km/h 7.4 km/h 78 % 0 mm
22:28 2.9 °C -0.7 °C 1007.3 hPa East 1.1 km/h 4.8 km/h 77 % 0 mm
22:33 2.9 °C -0.6 °C 1007.3 hPa East 2.1 km/h 3.7 km/h 78 % 0 mm
22:38 2.8 °C -0.6 °C 1007.3 hPa Calm   3.7 km/h 78 % 0 mm
22:44 2.8 °C -0.8 °C 1007.3 hPa ESE 5.6 km/h 14.8 km/h 77 % 0 mm
22:49 2.8 °C -0.8 °C 1007.3 hPa ESE 5.3 km/h 14.8 km/h 77 % 0 mm
22:54 2.8 °C -0.8 °C 1007 hPa East 2.1 km/h 9.3 km/h 77 % 0 mm
22:59 2.8 °C -0.8 °C 1007.3 hPa East 6.3 km/h 13 km/h 77 % 0 mm
23:04 2.8 °C -0.8 °C 1007 hPa East 5.8 km/h 9.3 km/h 77 % 0 mm
23:09 2.8 °C -0.8 °C 1007 hPa ESE 5.8 km/h 11.1 km/h 77 % 0 mm
23:14 2.8 °C -0.8 °C 1006.7 hPa East 3.9 km/h 9.3 km/h 77 % 0 mm
23:19 2.8 °C -0.8 °C 1006.7 hPa East 2.3 km/h 8 km/h 77 % 0 mm
23:24 2.8 °C -0.8 °C 1006.7 hPa East 2.4 km/h 5.6 km/h 77 % 0 mm
23:29 2.8 °C -0.8 °C 1006.7 hPa East 3.9 km/h 9.3 km/h 77 % 0 mm
23:34 2.8 °C -0.8 °C 1006.3 hPa ESE 9.2 km/h 13 km/h 77 % 0 mm
23:39 2.8 °C -0.8 °C 1006.3 hPa ESE 2.3 km/h 9.3 km/h 77 % 0 mm
23:44 2.7 °C -0.9 °C 1006.3 hPa East 5.1 km/h 9.3 km/h 77 % 0 mm
23:49 2.8 °C -0.7 °C 1006.3 hPa East 4.5 km/h 11.1 km/h 78 % 0 mm
23:55 2.8 °C -0.7 °C 1006 hPa East 5 km/h 11.1 km/h 78 % 0 mm
Crab Meadow Weather
Compliments of Weather Underground - 3 mb

Script developed by  Jim McMurry - jmcmurry@mwt.net Adapted for the template by  Wim van der Kuil - Leuven-Template.eu

Astronomy: It takes 16 million horsepower to break loose from the Earth's gravitational pull.